Location: Killam
(52.7910°N, 111.8608°W)
Time: 02:55:37
(UTC+00:00)

Oscar 11 - Pass Details

Date: 14 March 2026
Orbit: 590 x 602 km, 97.8° (Epoch: 13 April)

Event Time Altitude Azimuth Distance (km) Brightness Sun altitude
Rises 11:01:52 0° 16° (NNE) 2,843 11.1 -24.3°
Reaches altitude 10° 11:04:04 10° 19° (NNE) 1,935 10.2 -24.0°
Maximum altitude 11:08:15 69° 103° (ESE) 639 7.1 -23.5°
Enters shadow 11:08:54 57° 155° (SSE) 699 7.2 -23.4°
